Regional Weather Roundup
Issued by NWS

Home | Current Version | Previous Version | Text Only | Print | Product List | Glossary Off
Versions: 1 2 3 4 5 6 7 8 9 10 11 12 13 14 15 16 17 18 19 20 21 22 23 24 25 26 27 28 29 30 31 32 33 34 35 36 37 38 39 40 41 42 43 44 45 46 47 48 49 50

000
ASUS43 KLMK 252210
RWRKY
NATIONAL WEATHER SERVICE LOUISVILLE KY
500 PM EST TUE NOV 25 2014

NOTE "FAIR" INDICATES FEW OR NO CLOUDS BELOW 12,000 FEET
WITH NO SIGNIFICANT WEATHER AND/OR OBSTRUCTIONS TO VISIBILITY.

KYZ001>023-026-027-061>063-070>075-252300-
WESTERN AND SOUTH CENTRAL KENTUCKY

CITY           SKY/WX    TMP DP  RH WIND       PRES   REMARKS
PADUCAH        PTCLDY    43  26  51 CALM      30.15R
HENDERSON      CLOUDY    37  27  65 N5        30.16S WCI  34
OWENSBORO      PTCLDY    40  29  65 W8        30.17R WCI  34
HOPKINSVILLE   MOCLDY    44  27  51 NW5       30.13S
BOWLING GREEN  PTCLDY    46  25  43 NW3       30.13S
GLASGOW        MOCLDY    43  27  52 CALM      30.12S
$$

KYZ024-025-028>034-038-045-046-053-252300-
NORTH CENTRAL KENTUCKY

CITY           SKY/WX    TMP DP  RH WIND       PRES   REMARKS
LOUISVILLE/SDF MOCLDY    43  26  51 W7        30.13S
LOUISVILLE/LOU MOCLDY    43  26  51 CALM      30.13S
FORT KNOX      PTCLDY    41  29  61 W6        30.11S
$$

KYZ035>037-039>044-047>052-055>060-089>105-252300-
NORTHEAST KENTUCKY

CITY           SKY/WX    TMP DP  RH WIND       PRES   REMARKS
LEXINGTON      PTCLDY    42  27  55 W5        30.11S
COVINGTON      MOCLDY    40  27  59 W6        30.12R
FRANKFORT      PTCLDY    43  25  49 W5        30.12R
$$

KYZ054-064>069-076>088-106>120-252300-
SOUTHEAST KENTUCKY

CITY           SKY/WX    TMP DP  RH WIND       PRES   REMARKS
JACKSON        PTCLDY    50  24  36 NW3       30.07S
LONDON         PTCLDY    50  27  40 NW5       30.07F
SOMERSET       PTCLDY    46  30  53 NW5       30.10S
MIDDLESBORO    MOCLDY    52  29  40 CALM      30.05S
MONTICELLO     PTCLDY    48  30  50 NW6       30.12S
$$



USA.gov is the U.S. government's official web portal to all federal, state and local government web resources and services.